Location: Observatory
(49.4490°N, 2.6360°W)
Time: 08:24:33
(UTC+01:00)

NOAA 19 - Visible Passes

Search period start: 21 May 2024 00:00
Search period end: 31 May 2024 00:00
Orbit: 839 x 859 km, 99.0° (Epoch: 20 May)

Date Brightness Start Highest point End Pass type
(mag) Time Alt. Az. Time Alt. Az. Time Alt. Az.
21 May 6.5 22:28:58 10° SSW 22:33:57 36° W 22:38:59 10° NNW visible
22 May 6.1 22:16:22 10° S 22:21:34 45° W 22:26:49 10° NNW visible
23 May 5.8 22:03:51 10° S 22:09:12 56° W 22:14:36 10° NNW visible
24 May 5.5 21:51:25 10° S 21:56:51 70° WSW 22:02:20 10° NNW visible
24 May 7.7 23:36:55 10° WSW 23:38:30 11° W 23:40:05 10° WNW visible
25 May 5.3 21:39:03 10° SSE 21:44:31 86° WSW 21:50:03 10° NNW visible
25 May 7.6 23:23:04 10° WSW 23:25:58 14° W 23:28:54 10° NW visible
26 May 7.4 23:09:47 10° SW 23:13:29 18° W 23:17:13 10° NW visible
27 May 7.2 22:56:46 10° SW 23:01:00 23° W 23:05:18 10° NW visible
28 May 6.9 22:43:53 10° SSW 22:48:33 28° W 22:53:16 10° NW visible
29 May 6.5 22:31:10 10° SSW 22:36:08 35° W 22:41:10 10° NNW visible
30 May 6.2 22:18:32 10° S 22:23:44 44° W 22:28:59 10° NNW visible
